Meteo Giornale » Osservazioni meteo Ungheria » Balaton

ore: 01:45 - Osservazioni Meteo Balaton
Lat. 46° 41' N Lon. 17° 10' E Alt. 125 metri s.l.m.

sereno

16 °C

Sereno

Temp. 24 Ore

16 °C

28 °C

Nord

3.7 Km/h

Dew point 14 °C

Umidità 87 %

Visibilità  10 Km

Il sole sorge alle ore 06:12

Il sole tramonta alle ore 19:29

Data e Ora Cielo e Fenomeni T °C DP °C Um. % Pres. hPa Vis. km Vento km/h
Oggi h: 01:45 sereno Sereno 16 14 87 1021 10 N 3.7
Oggi h: 01:15 sereno Sereno 16 15 93 1021 10 N 5.5
Oggi h: 00:45 sereno Sereno 16 15 93 1021 10 N 3.7
Oggi h: 00:15 sereno Sereno 16 15 93 1021 10 N 5.5
Ieri h: 23:45 sereno Sereno 17 15 88 1021 10 N 3.7
Ieri h: 23:15 sereno Sereno 18 15 82 1020 10 N 1.8
Ieri h: 22:45 sereno Sereno 17 15 88 1020 10 N 3.7
Ieri h: 22:15 sereno Sereno 18 15 82 1020 10 N 3.7
Ieri h: 21:45 sereno Sereno 20 15 72 1020 10 N 0
Ieri h: 21:15 sereno Sereno 20 15 72 1020 10 NO 7.4
Ieri h: 20:45 sereno Sereno 22 15 64 1020 10 N 1.8
Ieri h: 20:15 foschia Foschia 23 15 60 1020 5 N 5.5
Ieri h: 19:45 sereno Sereno 24 14 53 1019 10 N 5.5
Ieri h: 19:15 sereno Sereno 25 14 50 1019 10 N 3.7
Ieri h: 18:45 sereno Sereno 26 14 47 1019 10 SO 7.4
Ieri h: 18:15 sereno Sereno 27 14 44 1019 10 SO 9.3
Ieri h: 17:45 sereno Sereno 27 12 39 1019 10 N 5.5
Ieri h: 17:15 sereno Sereno 28 13 39 1019 10 S/SO 9.3
Ieri h: 16:45 sereno Sereno 27 12 39 1019 10 S/SO 11.1
Ieri h: 16:15 sereno Sereno 27 13 42 1020 10 SO 11.1
Ieri h: 15:45 sereno Sereno 27 13 42 1020 10 S/SO 13
Ieri h: 15:15 sereno Sereno 28 13 39 1020 10 S/SO 14.8
Ieri h: 14:45 sereno Sereno 28 13 39 1020 10 SO 13
Ieri h: 14:15 sereno Sereno 27 14 44 1020 10 O/SO 11.1
Ieri h: 13:45 sereno Sereno 27 15 47 1021 10 S/SO 9.3
Ieri h: 13:15 sereno Sereno 27 12 39 1021 10 N 7.4
Ieri h: 12:45 sereno Sereno 26 13 44 1021 10 N 7.4
Ieri h: 12:15 sereno Sereno 25 14 50 1021 10 N 5.5
Ieri h: 11:45 sereno Sereno 23 15 60 1021 10 O/NO 9.3
Ieri h: 11:15 sereno Sereno 22 16 68 1021 10 NO 7.4
Ieri h: 10:45 sereno Sereno 21 16 73 1022 10 NO 9.3
Ieri h: 10:15 sereno Sereno 20 17 82 1021 10 O/NO 7.4
Ieri h: 09:45 sereno Sereno 19 17 88 1021 10 N 5.5
Ieri h: 09:15 sereno Sereno 19 17 88 1021 10 N 5.5
Ieri h: 08:45 sereno Sereno 18 17 93 1021 10 N 3.7
Ieri h: 08:15 sereno Sereno 18 17 93 1021 10 N 5.5
Ieri h: 07:15 nuvoloso_piovaschi Pioggia 17 16 93 1020 10 N 3.7
Ieri h: 06:45 sereno Sereno 17 16 93 1020 10 O/NO 7.4
Ieri h: 06:15 sereno Sereno 17 16 93 1019 10 N/NO 9.3
Ieri h: 05:45 sereno Sereno 17 16 93 1019 10 NO 9.3
Ieri h: 05:15 sereno Sereno 17 16 93 1019 10 N 5.5
Ieri h: 04:45 nuvoloso_piovaschi Pioggia 17 16 93 1018 10 N/NO 13
Ieri h: 04:15 sereno Sereno 17 16 93 1019 10 O 13
Ieri h: 03:45 sereno Sereno 17 16 93 1019 10 O/NO 11.1
Ieri h: 03:15 sereno Sereno 18 16 88 1018 10 N 3.7
Ieri h: 02:45 sereno Sereno 18 16 88 1018 10 N 7.4